Volver al catálogo

NOAA 16 DEB

ActivoPO
NORAD 42401·DEBRIS·🇺🇸 United States

Lanzado Sep 21, 2000 desde Vandenberg Space Force Base

Loading…

Próximos Pases (próximas 24 horas)

TLE

ActualizadoSource: Space-Track

Época: Sep 14, 2026, 03:19 UTC

1 42401U 00055SV  26257.13850883  .00004665  00000-0  95637-3 0  9993
2 42401  98.9421 141.7331 0041689 128.3796 232.1159 14.60710975551419

Sigue NOAA 16 DEB en tiempo real con AllMySat

Download on the App Store